• In Hungary
  • List of Countries
  • For 7 days
  • Water Temperature
  • Satellite Maps
  • Weather Map
  • News
  • Weather Widgets
  • user-avatar
    Login

    Hourly Weather Cwaliny

    Today, 21 September, Friday

    Time Temperature Precipitation Wind Pressure Humidity
    00:00 +19°C° 0 mm 3 mps 750 mmHg 69%
    01:00 +19°C° 0 mm 2 mps 750 mmHg 71%
    02:00 +18°C° 0 mm 3 mps 750 mmHg 72%
    03:00 +18°C° 0 mm 3 mps 749 mmHg 73%
    04:00 +17°C° 0 mm 3 mps 749 mmHg 74%
    05:00 +18°C° 0 mm 3 mps 749 mmHg 71%
    06:00 +19°C° 0 mm 3 mps 749 mmHg 69%
    07:00 +19°C° 0 mm 4 mps 749 mmHg 66%
    08:00 +21°C° 0 mm 4 mps 749 mmHg 60%
    09:00 +23°C° 0 mm 5 mps 749 mmHg 53%
    10:00 +26°C° 0 mm 5 mps 749 mmHg 47%
    11:00 +27°C° 0 mm 5 mps 748 mmHg 44%
    12:00 +27°C° 0 mm 6 mps 747 mmHg 41%
    13:00 +28°C° 0 mm 6 mps 747 mmHg 38%
    14:00 +27°C° 0 mm 6 mps 746 mmHg 41%
    15:00 +27°C° 0 mm 5 mps 746 mmHg 43%
    16:00 +26°C° 0 mm 5 mps 745 mmHg 46%
    17:00 +25°C° 0 mm 5 mps 744 mmHg 48%
    18:00 +23°C° 0 mm 5 mps 744 mmHg 50%
    19:00 +22°C° 0 mm 6 mps 743 mmHg 52%
    20:00 +21°C° 0 mm 6 mps 743 mmHg 53%
    21:00 +21°C° 0 mm 6 mps 743 mmHg 54%
    22:00 +21°C° 0 mm 6 mps 743 mmHg 55%
    23:00 +20°C° 0.2 mm 6 mps 743 mmHg 61%

    Tomorrow, 22 September, Saturday

    Time Temperature Precipitation Wind Pressure Humidity
    00:00 +19°C° 0.2 mm 6 mps 744 mmHg 68%
    01:00 +16°C° 0.2 mm 6 mps 744 mmHg 74%
    02:00 +15°C° 0.7 mm 6 mps 745 mmHg 78%
    03:00 +13°C° 0.7 mm 5 mps 745 mmHg 81%
    04:00 +10°C° 0.7 mm 5 mps 746 mmHg 85%
    05:00 +10°C° 0.1 mm 5 mps 747 mmHg 83%
    06:00 +10°C° 0.1 mm 5 mps 747 mmHg 81%
    07:00 +10°C° 0.1 mm 5 mps 748 mmHg 79%
    08:00 +12°C° 0 mm 5 mps 748 mmHg 74%
    09:00 +13°C° 0 mm 5 mps 748 mmHg 68%
    10:00 +13°C° 0 mm 6 mps 748 mmHg 62%
    11:00 +14°C° 0 mm 6 mps 748 mmHg 58%
    12:00 +15°C° 0 mm 6 mps 748 mmHg 54%
    13:00 +16°C° 0 mm 6 mps 748 mmHg 50%
    14:00 +15°C° 0.3 mm 5 mps 748 mmHg 53%
    15:00 +15°C° 0.3 mm 5 mps 748 mmHg 57%
    16:00 +14°C° 0.3 mm 4 mps 747 mmHg 60%
    17:00 +13°C° 0.2 mm 4 mps 748 mmHg 66%
    18:00 +12°C° 0.2 mm 3 mps 748 mmHg 72%
    19:00 +10°C° 0.2 mm 3 mps 748 mmHg 78%
    20:00 +10°C° 0.1 mm 3 mps 748 mmHg 79%
    21:00 +10°C° 0.1 mm 4 mps 748 mmHg 81%
    22:00 +8°C° 0.1 mm 4 mps 748 mmHg 82%
    23:00 +8°C° 0 mm 4 mps 748 mmHg 83%

    Day after tomorrow, 23 September, Sunday

    Time Temperature Precipitation Wind Pressure Humidity
    00:00 +8°C° 0 mm 4 mps 748 mmHg 83%
    01:00 +8°C° 0 mm 4 mps 748 mmHg 84%
    02:00 +8°C° 0 mm 5 mps 748 mmHg 84%
    03:00 +7°C° 0 mm 5 mps 748 mmHg 84%
    04:00 +7°C° 0 mm 5 mps 748 mmHg 84%
    05:00 +8°C° 0 mm 5 mps 748 mmHg 82%
    06:00 +8°C° 0 mm 6 mps 748 mmHg 80%
    07:00 +8°C° 0 mm 6 mps 748 mmHg 79%
    08:00 +10°C° 0 mm 6 mps 748 mmHg 73%
    09:00 +11°C° 0 mm 7 mps 748 mmHg 67%
    10:00 +12°C° 0 mm 7 mps 748 mmHg 61%
    11:00 +14°C° 0.1 mm 7 mps 748 mmHg 58%
    12:00 +15°C° 0.1 mm 7 mps 748 mmHg 55%
    13:00 +15°C° 0.1 mm 7 mps 748 mmHg 53%
    14:00 +15°C° 0.2 mm 7 mps 748 mmHg 54%
    15:00 +14°C° 0.2 mm 6 mps 747 mmHg 56%
    16:00 +14°C° 0.2 mm 5 mps 747 mmHg 58%
    17:00 +13°C° 0 mm 4 mps 747 mmHg 61%
    18:00 +12°C° 0 mm 4 mps 747 mmHg 64%
    19:00 +11°C° 0 mm 3 mps 747 mmHg 67%
    20:00 +10°C° 0 mm 2 mps 746 mmHg 67%
    21:00 +10°C° 0 mm 2 mps 745 mmHg 67%
    22:00 +10°C° 0 mm 2 mps 745 mmHg 67%
    23:00 +10°C° 0.4 mm 2 mps 744 mmHg 73%

    24 September, Monday

    Time Temperature Precipitation Wind Pressure Humidity
    00:00 +9°C° 0.4 mm 2 mps 743 mmHg 79%
    01:00 +10°C° 0.4 mm 1 mps 742 mmHg 85%
    02:00 +8°C° 1.6 mm 3 mps 740 mmHg 87%
    03:00 +7°C° 1.6 mm 4 mps 739 mmHg 90%
    04:00 +7°C° 1.6 mm 5 mps 737 mmHg 92%
    05:00 +7°C° 4.7 mm 6 mps 736 mmHg 93%
    06:00 +6°C° 4.7 mm 7 mps 734 mmHg 93%
    07:00 +5°C° 4.7 mm 8 mps 732 mmHg 94%
    08:00 +5°C° 3.7 mm 9 mps 733 mmHg 93%
    09:00 +5°C° 3.7 mm 10 mps 733 mmHg 92%
    10:00 +4°C° 3.7 mm 11 mps 733 mmHg 91%
    11:00 +6°C° 1 mm 10 mps 735 mmHg 87%
    12:00 +7°C° 1 mm 10 mps 737 mmHg 83%
    13:00 +8°C° 1 mm 9 mps 738 mmHg 79%
    14:00 +9°C° 0.2 mm 8 mps 740 mmHg 78%
    15:00 +9°C° 0.2 mm 8 mps 742 mmHg 78%
    16:00 +9°C° 0.2 mm 7 mps 743 mmHg 77%
    17:00 +8°C° 0.1 mm 7 mps 745 mmHg 79%
    18:00 +6°C° 0.1 mm 7 mps 746 mmHg 81%
    19:00 +6°C° 0.1 mm 7 mps 747 mmHg 83%
    20:00 +5°C° 0 mm 7 mps 748 mmHg 83%
    21:00 +5°C° 0 mm 7 mps 748 mmHg 82%
    22:00 +4°C° 0 mm 6 mps 749 mmHg 82%
    23:00 +4°C° 0 mm 6 mps 750 mmHg 82%

    25 September, Tuesday

    Time Temperature Precipitation Wind Pressure Humidity
    00:00 +4°C° 0 mm 6 mps 750 mmHg 82%
    01:00 +4°C° 0 mm 6 mps 751 mmHg 82%
    02:00 +4°C° 0.1 mm 6 mps 751 mmHg 82%
    03:00 +4°C° 0.1 mm 6 mps 752 mmHg 82%
    04:00 +4°C° 0.1 mm 6 mps 753 mmHg 82%
    05:00 +4°C° 0.1 mm 6 mps 753 mmHg 81%
    06:00 +5°C° 0.1 mm 6 mps 754 mmHg 80%
    07:00 +5°C° 0.1 mm 6 mps 755 mmHg 78%
    08:00 +6°C° 0.1 mm 7 mps 755 mmHg 71%
    09:00 +9°C° 0.1 mm 7 mps 756 mmHg 65%
    10:00 +10°C° 0.1 mm 8 mps 757 mmHg 58%
    11:00 +11°C° 0.1 mm 8 mps 757 mmHg 54%
    12:00 +11°C° 0.1 mm 8 mps 757 mmHg 51%
    13:00 +12°C° 0.1 mm 9 mps 757 mmHg 47%
    14:00 +11°C° 0 mm 8 mps 757 mmHg 48%
    15:00 +11°C° 0 mm 7 mps 757 mmHg 49%
    16:00 +10°C° 0 mm 6 mps 757 mmHg 50%
    17:00 +9°C° 0 mm 5 mps 757 mmHg 56%
    18:00 +8°C° 0 mm 5 mps 756 mmHg 62%
    19:00 +7°C° 0 mm 5 mps 756 mmHg 68%
    20:00 +8°C° 1.6 mm 5 mps 755 mmHg 75%
    21:00 +8°C° 1.6 mm 6 mps 755 mmHg 83%
    22:00 +8°C° 1.6 mm 7 mps 754 mmHg 90%
    23:00 +8°C° 1.5 mm 7 mps 753 mmHg 90%

    26 September, Wednesday

    Time Temperature Precipitation Wind Pressure Humidity
    00:00 +8°C° 1.5 mm 7 mps 753 mmHg 90%
    01:00 +9°C° 1.5 mm 8 mps 752 mmHg 91%
    02:00 +8°C° 0.2 mm 7 mps 753 mmHg 90%
    03:00 +7°C° 0.2 mm 6 mps 753 mmHg 90%
    04:00 +5°C° 0.2 mm 6 mps 754 mmHg 89%
    05:00 +6°C° 0 mm 5 mps 755 mmHg 88%
    06:00 +6°C° 0 mm 5 mps 755 mmHg 86%
    07:00 +6°C° 0 mm 5 mps 756 mmHg 84%
    08:00 +8°C° 0 mm 4 mps 757 mmHg 77%
    09:00 +10°C° 0 mm 4 mps 758 mmHg 70%
    10:00 +12°C° 0 mm 4 mps 758 mmHg 62%
    11:00 +12°C° 0 mm 4 mps 758 mmHg 59%
    12:00 +13°C° 0 mm 4 mps 759 mmHg 55%
    13:00 +14°C° 0 mm 4 mps 759 mmHg 52%
    14:00 +14°C° 0 mm 3 mps 759 mmHg 55%
    15:00 +14°C° 0 mm 2 mps 759 mmHg 59%
    16:00 +14°C° 0 mm 2 mps 759 mmHg 62%
    17:00 +13°C° 0 mm 2 mps 759 mmHg 68%
    18:00 +12°C° 0 mm 2 mps 759 mmHg 73%
    19:00 +9°C° 0 mm 2 mps 759 mmHg 79%
    20:00 +9°C° 0 mm 2 mps 759 mmHg 83%
    21:00 +9°C° 0 mm 2 mps 759 mmHg 87%
    22:00 +8°C° 0 mm 3 mps 759 mmHg 91%
    23:00 +8°C° 0 mm 3 mps 759 mmHg 92%
    Show more